スペースウォッチ-ヒル彗星

393P/Spacewatch-Hill (2009)

English version
Home page
Updated on December 20, 2019

---------------------------------------------------------------------

・ プロフィール

符号 393P/2009 SK280
発見日 2009年9月25日、10月15日
発見光度 20.1等、19.8等
発見者 Spacewatch, R. E. Hill (Mount Lemmon Survey)

・ 軌道要素

Epoch 2009 May 9.0 TT = JDT 2454960.5                                           
T 2009 May 24.40347 TT                                  Bell                    
q   4.1989993            (2000.0)            P               Q                  
n   0.09441433     Peri.  328.27909     +0.98331920     -0.06026967             
a   4.7765109      Node    36.41470     +0.15211583     +0.78977189             
e   0.1209066      Incl.   16.80364     -0.09972024     +0.61043257             
P  10.4                                                                         
From 104 observations 2009 Sept. 17-2019 Oct. 31, mean residual 0".7.           

・ 光度変化

        m1 = 1.0 + 5 logΔ + 25 log r

---------------------------------------------------------------------

軌道要素はM.P.E.C. 2019-V147に掲載されたものです。
光度グラフはComet for Windowsで作成したものです。

---------------------------------------------------------------------

Copyright(C) Seiichi Yoshida (comet@aerith.net). All rights reserved.